Yeovilton, United Kingdom

8:11 AM GMT on February 20, 2018 (GMT +0000)
Yeovil Radar Navy

Weather History for EGDY - March, 2013

Change the Weather History Date:

Wednesday, March 6, 2013

  Actual Average Record
Temperature  
Mean Temperature 49 °F -  
Max Temperature 54 °F 50 °F 55 °F (1998)
Min Temperature 44 °F 36 °F 24 °F (2005)
Degree Days  
Heating Degree Days 16    
Moisture  
Dew Point 42 °F    
Average Humidity 73    
Maximum Humidity 87    
Minimum Humidity 58    
Precipitation  
Precipitation 0.01 in - - ()
Sea Level Pressure  
Sea Level Pressure 29.48 in    
Wind  
Wind Speed 6 mph ()    
Max Wind Speed 12 mph    
Max Gust Speed -    
Visibility 6.1 miles    
Events Rain    
Averages and records for this station are not official NWS values.
T = Trace of Precipitation, MM = Missing Value Source: Averaged Metar Reports

Daily Weather History Graph

Daily Weather History Graph

Search for Another Location

Airport or City:

Trip Planner

Search our weather history database for the weather conditions in past years. The results will help you decide how hot, cold, wet, or windy it might be!

Date:

Astronomy

Mar. 06, 2013 Rise Set
Actual Time 6:44 AM GMT 6:00 PM GMT
Civil Twilight 6:11 AM GMT 6:33 PM GMT
Nautical Twilight 5:33 AM GMT 7:11 PM GMT
Astronomical Twilight 4:54 AM GMT 7:50 PM GMT
Moon 3:09 AM GMT (3/6) 11:58 AM GMT (3/6)
Length of Visible Light 12h 22m
Length of Day
11h 16m
Waning Crescent, 32% of the Moon is Illuminated
Mar 6
Waning Crescent
Mar 11
New
Mar 19
First Quarter
Mar 27
Full
Apr 3
Last Quarter

Hourly Weather History & Observations

Time (GMT) Temp. Windchill Dew Point Humidity Pressure Visibility Wind Dir Wind Speed Gust Speed Precip Events Conditions
12:50 AM 44.6 °F 42.2 °F 37.4 °F 76% 29.53 in 6.2 mi East 4.6 mph - N/A   Mostly Cloudy
1:50 AM 46.4 °F 45.2 °F 37.4 °F 71% 29.50 in 6.2 mi ENE 3.5 mph - N/A   Overcast
2:50 AM 45 °F - 38 °F 68% 29.52 in 6 mi ESE 2.3 mph - -   Overcast
2:50 AM 44.6 °F - 37.4 °F 76% 29.50 in 6.2 mi ESE 2.3 mph - N/A   Overcast
3:50 AM 46.4 °F 42.9 °F 39.2 °F 76% 29.50 in 6.2 mi East 6.9 mph - N/A Rain Light Rain
4:50 AM 46.4 °F 43.5 °F 39.2 °F 76% 29.50 in 6.2 mi East 5.8 mph - N/A Rain Light Rain
5:50 AM 46 °F - 40 °F 72% 29.50 in 6 mi East 6.9 mph - - Rain Light Rain
5:50 AM 46.4 °F 42.9 °F 39.2 °F 76% 29.47 in 6.2 mi East 6.9 mph - N/A Rain Light Rain
6:50 AM 44.6 °F 43.1 °F 41.0 °F 87% 29.47 in 5.0 mi ENE 3.5 mph - N/A Rain Light Rain
7:50 AM 46.4 °F 45.2 °F 42.8 °F 87% 29.50 in 4.3 mi East 3.5 mph - N/A   Haze
8:50 AM 47 °F - 41 °F 73% 29.52 in 4 mi East 8.1 mph - -   Haze
8:50 AM 48.2 °F - 41.0 °F 76% 29.50 in 4.3 mi East 8.1 mph - N/A   Haze
9:50 AM 48.2 °F - 41.0 °F 76% 29.50 in 5.0 mi East 6.9 mph - N/A   Haze
10:50 AM 50.0 °F - 42.8 °F 76% 29.50 in - ENE 5.8 mph - N/A   Clear
11:50 AM 52 °F - 43 °F 63% 29.51 in 6 mi East 10.4 mph - -   Partly Cloudy
11:50 AM 51.8 °F - 42.8 °F 71% 29.50 in - East 10.4 mph - N/A   Clear
12:50 PM 53.6 °F - 42.8 °F 67% 29.47 in - ESE 11.5 mph - N/A   Clear
1:50 PM 53.6 °F - 42.8 °F 67% 29.47 in 6.2 mi ESE 10.4 mph - N/A   Overcast
2:50 PM 54 °F - 43 °F 58% 29.48 in 7 mi ESE 11.5 mph - -   Overcast
2:50 PM 53.6 °F - 42.8 °F 67% 29.47 in 6.2 mi ESE 11.5 mph - N/A   Overcast
3:50 PM 53.6 °F - 42.8 °F 67% 29.44 in 6.2 mi East 10.4 mph - N/A   Overcast
4:50 PM 53.6 °F - 42.8 °F 67% 29.44 in - ESE 8.1 mph - N/A   Clear
5:50 PM 52 °F - 44 °F 65% 29.48 in 7 mi East 5.8 mph - -   Mostly Cloudy
5:50 PM 51.8 °F - 44.6 °F 76% 29.47 in - East 5.8 mph - N/A   Clear
6:50 PM 51.8 °F - 42.8 °F 71% 29.47 in 6.2 mi East 5.8 mph - N/A Rain Light Rain
7:50 PM 50.0 °F - 42.8 °F 76% 29.47 in - East 8.1 mph - N/A   Clear
8:50 PM 50 °F - 43 °F 70% 29.49 in 9 mi East 8.1 mph - - Rain Light Rain
8:50 PM 50.0 °F - 42.8 °F 76% 29.47 in 6.2 mi East 8.1 mph - N/A Rain Light Rain
9:50 PM 50.0 °F - 42.8 °F 76% 29.47 in 6.2 mi East 6.9 mph - N/A Rain Light Rain
10:50 PM 50.0 °F - 42.8 °F 76% 29.47 in 6.2 mi East 6.9 mph - N/A   Mostly Cloudy
11:50 PM 48 °F - 44 °F 81% 29.47 in 9 mi ESE 8.1 mph - - Rain Light Rain
11:50 PM 48.2 °F - 44.6 °F 87% 29.44 in 6.2 mi ESE 8.1 mph - N/A Rain Light Rain